TimePDT,TemperatureF,Dew PointF,Humidity,Sea Level PressureIn,VisibilityMPH,Wind Direction,Wind SpeedMPH,Gust SpeedMPH,PrecipitationIn,Events,Conditions,WindDirDegrees,DateUTC
12:53 AM,63.0,53.1,70,29.93,10.0,NNW,6.9,-,N/A,,Clear,330,2013-08-05 07:53:00
1:53 AM,61.0,53.1,75,29.93,10.0,NW,6.9,-,N/A,,Clear,310,2013-08-05 08:53:00
2:53 AM,60.1,53.1,78,29.93,10.0,NNW,8.1,-,N/A,,Clear,330,2013-08-05 09:53:00
3:53 AM,61.0,53.1,75,29.93,10.0,NNW,9.2,-,N/A,,Clear,330,2013-08-05 10:53:00
4:53 AM,60.1,53.1,78,29.93,10.0,NNW,8.1,-,N/A,,Clear,330,2013-08-05 11:53:00
5:53 AM,57.9,53.1,84,29.94,10.0,NNW,8.1,-,N/A,,Clear,340,2013-08-05 12:53:00
6:53 AM,57.9,54.0,87,29.96,10.0,NW,5.8,-,N/A,,Clear,320,2013-08-05 13:53:00
7:53 AM,62.1,54.0,75,29.97,10.0,NW,9.2,-,N/A,,Clear,320,2013-08-05 14:53:00
8:53 AM,66.0,53.1,63,29.98,10.0,NW,8.1,-,N/A,,Clear,310,2013-08-05 15:53:00
9:53 AM,70.0,53.1,55,29.98,10.0,NW,9.2,-,N/A,,Clear,320,2013-08-05 16:53:00
10:53 AM,75.0,54.0,48,29.98,10.0,WNW,8.1,-,N/A,,Clear,300,2013-08-05 17:53:00
11:53 AM,79.0,53.1,40,29.97,10.0,NNW,9.2,-,N/A,,Clear,330,2013-08-05 18:53:00
12:53 PM,81.0,52.0,36,29.95,10.0,NNW,8.1,-,N/A,,Clear,330,2013-08-05 19:53:00
1:53 PM,84.9,53.1,33,29.93,10.0,NW,8.1,-,N/A,,Clear,310,2013-08-05 20:53:00
2:53 PM,88.0,48.9,26,29.91,10.0,NNW,9.2,-,N/A,,Clear,330,2013-08-05 21:53:00
3:53 PM,90.0,48.9,24,29.89,10.0,NNW,11.5,-,N/A,,Clear,340,2013-08-05 22:53:00
4:53 PM,91.0,42.1,18,29.88,10.0,NNW,12.7,-,N/A,,Clear,340,2013-08-05 23:53:00
5:53 PM,89.1,37.9,16,29.86,10.0,NNW,12.7,-,N/A,,Clear,340,2013-08-06 00:53:00
6:53 PM,87.1,50.0,28,29.87,10.0,NNW,13.8,-,N/A,,Clear,340,2013-08-06 01:53:00
7:53 PM,82.9,51.1,33,29.87,10.0,NW,12.7,-,N/A,,Clear,320,2013-08-06 02:53:00
8:53 PM,78.1,52.0,40,29.89,10.0,NW,9.2,-,N/A,,Clear,320,2013-08-06 03:53:00
9:53 PM,73.9,52.0,46,29.91,10.0,NW,10.4,-,N/A,,Clear,320,2013-08-06 04:53:00
10:53 PM,71.1,52.0,51,29.91,10.0,NNW,8.1,-,N/A,,Clear,340,2013-08-06 05:53:00
11:53 PM,69.1,51.1,53,29.91,10.0,NNW,6.9,-,N/A,,Clear,340,2013-08-06 06:53:00